星链-3562 (STARLINK-3562 )

导读

STARLINK-3562是美国太空探索技术公司Starlink卫星互联网项目的成员,于2022年3月3日发射,属于该项目的第二代低轨通信卫星。它运行在近地轨道,旨在为全球提供高速低延迟的互联网接入服务,是SpaceX构建全球卫星互联网星座的重要组成部分,服务覆盖偏远地区与网络基础设施薄弱区域。

基本信息
目录编号:
51861
目录名称:
STARLINK-3562
国际标识:
2022-022K
轨道中心:
EARTH
卫星名称:
星链-3562
卫星全名:
星链-3562 (STARLINK-3562 )
卫星状态:
在轨 (已飞行1653 天)
发射日期:
2022-03-03 UTC
国别 :
美国 (US)
星等 :
--
该卫星已列入 空间交会检测服务 Space Conjunction Data Service (SCDS) ,当前飞行风险评估等级: 高风险
轨道信息
数据来源 国际轨道数据 AOE轨道数据
星历时间 2026-09-11T08:17:56+0800
20小时前
查看轨道信息
2026-09-10T00:00:00+0800
2天前
查看轨道信息
半长轴 6840.864km 6840.867km
偏心率 0.0001291 0.0001332
轨道倾角 53.159° 53.155°
近地点辐角 85.944° 87.335°
升交点赤经 247.726° 254.018°
平近点角 274.171° 34.788°
近地点 461.843km 461.818km
远地点 463.611km 463.642km
周期 93.848分钟 93.848分钟
每日圈数 15.343923 15.343913
详细信息
固有亮度:
5
最大亮度:
2.5
卫星平台:
Starlink v1.5
覆盖范围:
全球
运营商:
太空探索技术公司
运营商所在国:
美国
制造商(研发单位):
太空探索技术公司
制造商所在国:
美国
使用方式:
暂无
卫星简介
星链(Starlink)计划是由太空探索技术公司(SpaceX)提出的一个巨型低轨卫星互联网星座项目,计划在2019年至2024年间在太空搭建由约1.2万颗卫星组成的“星链”网络,其中1584颗将部署在地球上空550千米处的近地轨道,并从2020年开始工作。该卫星仍在工作。
2D轨道图
3D轨道图
轨道高度分析图
轨道倾角分析图
轨道综合分析图
查看轨道综合分析图
交会数据列表
事件ID 空间交会对象 最接近时刻(TCA) 交会距离 交会风险概率(CRP) 交会风险指数(CRI) 操作
CDM_260913-032605-186106-832722
2026-09-13T
03:26:18+0000
0.562 km
远距离
7.254508E-5 中风险 0.72
CDM_260912-233105-186106-832722
2026-09-12T
23:31:50+0000
0.927 km
远距离
1.504955E-5 中风险 0.59
CDM_260907-173805-112505-186121
2026-09-07T
17:38:22+0000
2.832 km
极远距离
9.629628E-7 极低风险 0.35
与全量物体交会距离演化趋势
与全量物体交会风险概率演化趋势